DW9620 Weather Reports


time (UTC)temp
F
wind
direction
speed
knots
gust
knots
rain 1hr
in
rain 24hr
in
rain mn
in
humidity
%
barometer
mb
20260505010004 69 208 4.3 8.7 0.00 0.00 0.00 56 1004.9
20260505005504 70 206 5.2 8.7 0.00 0.00 0.00 55 1004.9
20260505005005 70 194 4.3 8.7 0.00 0.00 0.00 55 1005.2
20260505004504 70 201 5.2 8.7 0.00 0.00 0.00 55 1005.2
20260505004004 70 206 5.2 7.8 0.00 0.00 0.00 54 1005.2
20260505003504 71 209 3.5 8.7 0.00 0.00 0.00 54 1005.4
20260505003004 71 205 6.1 10.4 0.00 0.00 0.00 53 1005.4
20260505002504 71 206 6.1 10.4 0.00 0.00 0.00 52 1005.3
20260505001003 72 225 5.2 12.2 0.00 0.00 0.00 49 1005.5
20260505000504 73 207 6.1 12.2 0.00 0.00 0.00 49 1005.5
20260505000004 73 229 5.2 13.9 0.00 0.00 0.00 48 1005.5
20260504235504 73 238 7.8 17.4 0.00 0.00 0.00 47 1005.5
20260504234003 74 235 8.7 22.6 0.00 0.00 0.00 46 1005.5
20260504233503 75 227 12.2 22.6 0.00 0.00 0.00 45 1005.5
20260504233003 75 228 11.3 19.1 0.00 0.00 0.00 46 1005.5
20260504232005 75 233 9.6 17.4 0.00 0.00 0.00 47 1005.6
20260504231504 75 230 10.4 17.4 0.00 0.00 0.00 47 1005.6
20260504231004 74 219 12.2 17.4 0.00 0.00 0.00 49 1005.9
20260504230504 74 228 9.6 15.6 0.00 0.00 0.00 51 1005.9
20260504230005 74 218 10.4 15.6 0.00 0.00 0.00 51 1005.9
20260504225504 74 222 8.7 15.6 0.00 0.00 0.00 52 1005.9
20260504225004 75 205 7.8 15.6 0.00 0.00 0.00 52 1005.9
20260504224504 75 209 5.2 12.2 0.00 0.00 0.00 52 1005.9
20260504224004 75 234 7.0 12.2 0.00 0.00 0.00 54 1005.8
20260504223504 75 254 4.3 11.3 0.00 0.00 0.00 55 1005.9
20260504223005 74 204 6.1 11.3 0.00 0.00 0.00 54 1005.8
20260504222504 74 203 7.8 13.0 0.00 0.00 0.00 54 1005.8
20260504222005 74 211 6.1 13.0 0.00 0.00 0.00 54 1005.8
20260504221504 74 195 5.2 13.0 0.00 0.00 0.00 54 1006.2
20260504221004 74 225 4.3 10.4 0.00 0.00 0.00 53 1006.3
20260504220504 74 228 6.1 12.2 0.00 0.00 0.00 53 1006.4
20260504215504 74 237 7.0 12.2 0.00 0.00 0.00 53 1006.4
20260504214504 74 215 4.3 13.9 0.00 0.00 0.00 54 1006.6
20260504214004 74 234 5.2 13.9 0.00 0.00 0.00 52 1006.6
20260504213504 74 212 7.0 13.9 0.00 0.00 0.00 52 1006.5
20260504213004 74 247 7.8 10.4 0.00 0.00 0.00 52 1006.7
20260504212504 74 208 4.3 11.3 0.00 0.00 0.00 53 1006.7
20260504212004 74 265 7.0 13.0 0.00 0.00 0.00 50 1006.7
20260504211503 74 285 7.0 13.9 0.00 0.00 0.00 51 1006.8
20260504210504 74 285 5.2 14.8 0.00 0.00 0.00 50 1007.3
20260504210004 74 265 7.8 17.4 0.00 0.00 0.00 51 1007.3
20260504205504 74 256 11.3 17.4 0.00 0.00 0.00 50 1007.3
20260504205004 73 255 7.8 13.9 0.00 0.00 0.00 50 1007.3
20260504204504 73 284 10.4 14.8 0.00 0.00 0.00 50 1007.3
20260504204004 73 253 8.7 19.1 0.00 0.00 0.00 50 1007.3
20260504203504 74 240 8.7 19.1 0.00 0.00 0.00 52 1007.3
20260504202505 74 220 10.4 18.2 0.00 0.00 0.00 56 1007.3
20260504202004 73 267 9.6 13.9 0.00 0.00 0.00 53 1007.3
20260504201504 74 241 8.7 14.8 0.00 0.00 0.00 52 1007.3
20260504201004 73 234 10.4 14.8 0.00 0.00 0.00 54 1007.8
20260504200503 72 230 6.1 19.1 0.00 0.00 0.00 56 1007.8
20260504200004 72 262 10.4 19.1 0.00 0.00 0.00 54 1007.8
20260504195504 73 248 10.4 13.9 0.00 0.00 0.00 53 1007.8
20260504195004 73 245 7.0 13.0 0.00 0.00 0.00 57 1008.2
20260504194504 72 209 7.8 13.0 0.00 0.00 0.00 60 1008.2
20260504194004 71 231 6.1 10.4 0.00 0.00 0.00 58 1008.4
20260504193504 71 241 6.1 13.9 0.00 0.00 0.00 57 1008.4
20260504193004 71 257 7.0 13.9 0.00 0.00 0.00 59 1008.4
20260504192504 70 226 6.1 12.2 0.00 0.00 0.00 61 1008.4
20260504191504 69 248 5.2 10.4 0.00 0.00 0.00 62 1008.7
20260504191004 68 236 4.3 11.3 0.00 0.00 0.00 62 1008.8
20260504190504 68 235 5.2 15.6 0.00 0.00 0.00 61 1008.6
20260504190004 68 237 7.8 19.1 0.00 0.00 0.00 62 1008.6
20260504184504 68 240 11.3 19.1 0.00 0.00 0.00 59 1008.6
20260504183504 68 256 7.8 14.8 0.00 0.00 0.00 58 1008.3
20260504183004 69 261 9.6 20.9 0.00 0.00 0.00 58 1008.0
20260504182504 68 256 11.3 20.9 0.00 0.00 0.00 58 1008.0
20260504182004 69 235 11.3 20.0 0.00 0.00 0.00 57 1008.0
20260504181505 69 241 10.4 22.6 0.00 0.00 0.00 56 1008.0
20260504181004 70 220 10.4 22.6 0.00 0.00 0.00 57 1007.9
20260504180505 70 189 10.4 18.2 0.00 0.00 0.00 57 1007.9
20260504180004 70 211 12.2 22.6 0.00 0.00 0.00 58 1007.9
20260504175504 70 225 7.8 22.6 0.00 0.00 0.00 59 1008.0
20260504175004 69 214 11.3 22.6 0.00 0.00 0.00 60 1007.9
20260504174504 69 214 6.1 18.2 0.00 0.00 0.00 61 1007.9
20260504174004 69 241 6.1 13.0 0.00 0.00 0.00 63 1007.9
20260504173504 68 218 6.1 11.3 0.00 0.00 0.00 62 1007.5
20260504173004 68 200 6.1 11.3 0.00 0.00 0.00 61 1007.4
20260504172504 68 194 7.8 13.0 0.00 0.00 0.00 61 1007.7
20260504172004 68 203 7.0 14.8 0.00 0.00 0.00 61 1008.0
20260504171504 68 230 5.2 14.8 0.00 0.00 0.00 61 1008.1
20260504171004 67 237 6.1 14.8 0.00 0.00 0.00 62 1008.2
20260504170504 67 240 5.2 12.2 0.00 0.00 0.00 62 1008.1
20260504151004 63 213 6.1 15.6 0.00 0.00 0.00 65 1008.7
20260504150503 63 230 8.7 15.6 0.00 0.00 0.00 64 1008.6
20260504141004 60 202 8.7 15.6 0.00 0.00 0.00 68 1009.1
20260504140504 59 217 7.8 15.6 0.00 0.00 0.00 69 1009.1
20260504130504 56 208 7.0 13.0 0.00 0.00 0.00 69 1009.6
20260504110504 52 204 5.2 11.3 0.00 0.00 0.00 67 1009.5
20260504100504 51 213 3.5 6.1 0.00 0.00 0.00 65 1009.6
20260504082004 53 211 5.2 12.2 0.00 0.00 0.00 61 1010.3
20260504081504 53 213 5.2 11.3 0.00 0.00 0.00 61 1010.3
20260504081004 53 213 6.1 11.3 0.00 0.00 0.00 60 1010.4
20260504080504 53 201 6.1 11.3 0.00 0.00 0.00 61 1010.4
20260504050504 50 194 4.3 7.0 0.00 0.00 0.00 65 1011.9
20260504050004 50 196 2.6 7.0 0.00 0.00 0.00 64 1011.8
20260504045504 50 196 3.5 7.0 0.00 0.00 0.00 64 1011.8
20260504045004 50 191 4.3 7.0 0.00 0.00 0.00 64 1011.9
20260504044504 50 193 3.5 7.0 0.00 0.00 0.00 64 1012.0
20260504044003 51 193 3.5 7.0 0.00 0.00 0.00 63 1011.9
20260504043004 51 178 4.3 7.8 0.00 0.00 0.00 63 1012.1
20260504042504 51 169 3.5 7.8 0.00 0.00 0.00 62 1012.2
20260504042005 51 171 4.3 8.7 0.00 0.00 0.00 62 1012.4
20260504041504 51 184 6.1 8.7 0.00 0.00 0.00 62 1012.3
20260504041004 51 187 4.3 10.4 0.00 0.00 0.00 61 1012.5
20260504040504 52 182 4.3 10.4 0.00 0.00 0.00 61 1012.5
20260504040004 52 186 4.3 10.4 0.00 0.00 0.00 61 1012.5
20260504034504 52 189 4.3 7.8 0.00 0.00 0.00 60 1012.6
20260504034004 52 189 4.3 7.8 0.00 0.00 0.00 60 1012.6
20260504033504 53 179 4.3 7.8 0.00 0.00 0.00 59 1012.6
20260504033004 53 183 4.3 7.8 0.00 0.00 0.00 59 1012.7
20260504032505 53 179 4.3 7.8 0.00 0.00 0.00 58 1012.7
20260504032004 53 184 3.5 6.1 0.00 0.00 0.00 58 1012.7
20260504031504 54 190 4.3 6.1 0.00 0.00 0.00 57 1012.8
20260504030504 54 171 2.6 5.2 0.00 0.00 0.00 56 1012.9
20260504030004 54 169 2.6 5.2 0.00 0.00 0.00 56 1012.9
20260504025504 55 167 2.6 5.2 0.00 0.00 0.00 55 1013.0
20260504025004 55 173 4.3 6.1 0.00 0.00 0.00 54 1012.9
20260504023004 56 326 1.7 6.1 0.00 0.00 0.00 53 1012.8
20260504022004 56 288 2.6 6.1 0.00 0.00 0.00 52 1012.8
20260504021504 56 326 3.5 11.3 0.00 0.00 0.00 51 1012.8
20260504021004 56 329 4.3 11.3 0.00 0.00 0.00 50 1012.8
20260504020504 56 310 6.1 10.4 0.00 0.00 0.00 49 1012.8
20260504020004 56 311 5.2 10.4 0.00 0.00 0.00 49 1012.6
20260504015505 56 302 7.0 13.9 0.00 0.00 0.00 49 1012.6
20260504015004 56 268 5.2 13.9 0.00 0.00 0.00 48 1012.5
20260504014504 56 228 1.7 7.8 0.00 0.00 0.00 49 1012.4
20260504014004 56 227 2.6 7.8 0.00 0.00 0.00 48 1012.5
20260504013504 56 202 4.3 7.0 0.00 0.00 0.00 48 1012.4
20260504012504 56 189 4.3 10.4 0.00 0.00 0.00 47 1012.5
20260504011504 56 290 6.1 8.7 0.00 0.00 0.00 47 1012.7
20260504011005 56 264 2.6 7.8 0.00 0.00 0.00 47 1012.7
20260504010504 57 256 4.3 7.8 0.00 0.00 0.00 47 1012.7